Regional Weather Roundup
Issued by NWS Newport/Morehead, NC

Current Version | Previous Version | Text Only | Print | Product List | Glossary Off
Versions: 1 2 3 4 5 6 7 8 9 10 11 12 13 14 15 16 17 18 19 20 21 22 23 24 25 26 27 28 29 30 31 32 33 34 35 36 37 38 39 40 41 42 43 44 45 46 47 48 49 50

000
ASUS42 KMHX 020324
RWRMHX
WEATHER ROUNDUP FOR EASTERN NORTH CAROLINA
NATIONAL WEATHER SERVICE NEWPORT/MOREHEAD CITY NC
1100 PM EDT WED APR 01 2015

NOTE: "FAIR" INDICATES FEW OR NO CLOUDS BELOW 12,000 FEET
WITH NO SIGNIFICANT WEATHER AND/OR OBSTRUCTIONS TO VISIBILITY

NCZ015>017-031-032-045>047-102-103-020400-
NORTH COAST

CITY           SKY/WX    TMP DP  RH WIND       PRES   REMARKS
EDENTON        CLEAR     44  36  73 SE5       30.31R
ELIZABETH CITY CLEAR     41  33  73 CALM      30.31R
KITTY HAWK     CLEAR     42  33  70 E5        30.30R
MANTEO         CLEAR     40  32  72 E5        30.31S

$$

NCZ045>047-081-094-103-104-020400-
CENTRAL COAST

CITY           SKY/WX    TMP DP  RH WIND       PRES   REMARKS
FRISCO         CLEAR     40  31  70 NE6       30.31R
SWANQUARTER      N/A     43 N/A N/A NE2       30.27S

$$

NCZ095-097-098-100-101-020400-
SOUTHERN COAST

CITY           SKY/WX    TMP DP  RH WIND       PRES   REMARKS
BEAUFORT       FAIR      49  34  56 NE8       30.31R
CEDAR ISLAND     N/A     50 N/A N/A NE16      30.33S
JACKSONVILLE   CLEAR     50  38  63 E10       30.29R
PINEY ISLAND   CLEAR    N/A N/A N/A E10       30.30R
WILMINGTON     CLEAR     53  42  66 E9        30.29R


$$

NCZ011>013-027>030-043-044-078>080-089-090>093-098-020400-
COASTAL PLAIN

CITY           SKY/WX    TMP DP  RH WIND       PRES   REMARKS
AHOSKIE        CLEAR     43  34  69 SE5       30.30R
CLINTON        CLEAR     50  41  70 SE3       30.28R
ELIZABETHTOWN  CLEAR     51  43  73 SE5       30.27R
GOLDSBORO      CLEAR     51  42  72 SE7       30.25R
GREENVILLE     CLEAR     50  39  66 SE5       30.29R
HAVELOCK       CLEAR     45  36  70 E8        30.31R
KENANSVILLE    CLEAR     47  39  72 SE3       30.29R
KINSTON        CLEAR     49  38  65 SE6       30.29R
NEW BERN       CLEAR     48  38  68 E8        30.30R
RICHLANDS      CLEAR     46  36  66 E6        30.30R
ROCKY MOUNT    CLEAR     51  33  50 SE5       30.27R
WASHINGTON     CLEAR     45  37  71 E7        30.31R
WHITEVILLE     CLEAR     54  44  68 E7        30.26R

$$

AMZ130-135-150-152-154-156-158-170-250-252-270-ANZ085-086-088-633-658-670-020400-
MARINE OBSERVATIONS

STATION/POSITION TIME  TEMP    WIND        PRES    WAVE   SWELL
                       AIR SEA DIR/SP/G            HT/PER HT/PER
                 (UTC) (F)     (DEG/KT/KT) (MB)    (FT/S) (FT/S)
CHESAPEAKE LIGHT 0300   42     160/ 11/ 11 1026.1
64 E VA BEACH    0250   47 53  340/  2/  2 1025.6    3/ 7   3/ 7
DUCK             0300   42 43  130/  7/  8 1025.3
2 E DUCK         0211      43                N/A     3/ 7
10 NE DUCK       NOT AVBL
OREGON INLET     0300   42 47   70/  4/  5 1026.3
HATTERAS CG      0300   45 57  100/  3/  5 1026.7
CAPE LOOKOUT     0300   54      50/ 17/ 19 1025.9
BEAUFORT LAB     0300   51 55   70/  6/  8 1025.2
27 SE WRIGHTSVLE 0300   56 64   80/ 17/ 21 1026.6
5 SE WRIGHTSVLE  0300   56 56  100/ 16/ 19 1025.3
225 S CAPE HAT   0250   64 69   40/ 19/ 23 1022.9    7/ 9   3/ 9
41 SE CHARLESTON 0250   65 68   70/ 19/ 23 1022.4    7/ 7   2/12

$$



USA.gov is the U.S. government's official web portal to all federal, state and local government web resources and services.